EW4490 Weather Reports


time (UTC)temp
C
wind
direction
speed
KPH
gust
KPH
rain 1hr
cm
rain 24hr
cm
rain mn
cm
humidity
%
barometer
mb
20260505114550 3 38 11.3 19.3 0.08 0.61 0.18 90 1013.2
20260505114035 3 49 8.0 22.5 0.08 0.61 0.18 89 1013.2
20260505113540 3 26 12.9 22.5 0.08 0.58 0.15 89 1013.2
20260505113052 3 18 12.9 22.5 0.08 0.58 0.15 89 1013.0
20260505112536 3 51 12.9 25.7 0.05 0.56 0.13 89 1013.0
20260505112036 3 28 12.9 25.7 0.05 0.56 0.13 89 1012.9
20260505111544 3 36 16.1 25.7 0.08 0.56 0.13 89 1012.8
20260505111037 3 38 11.3 24.1 0.05 0.53 0.10 89 1012.6
20260505110536 3 44 12.9 24.1 0.05 0.53 0.10 89 1012.5
20260505102037 5 54 11.3 20.9 0.03 0.51 0.08 87 1012.1
20260505101551 5 55 12.9 20.9 0.00 0.48 0.05 87 1011.9
20260505101034 5 16 12.9 22.5 0.00 0.48 0.05 87 1011.8
20260505100536 5 51 11.3 22.5 0.00 0.48 0.05 87 1011.7
20260505100044 5 61 11.3 24.1 0.00 0.48 0.05 87 1011.5
20260505095533 5 29 9.7 24.1 0.00 0.48 0.05 87 1011.5
20260505095040 5 111 11.3 22.5 0.00 0.48 0.05 88 1011.4
20260505094542 5 97 9.7 25.7 0.00 0.48 0.05 88 1011.2
20260505094036 5 53 12.9 25.7 0.00 0.48 0.05 88 1010.9
20260505093536 5 47 14.5 27.4 0.00 0.48 0.05 88 1011.1
20260505093044 5 49 12.9 27.4 0.00 0.48 0.05 88 1011.3
20260505092537 5 56 12.9 22.5 0.00 0.48 0.05 88 1011.1
20260505092035 5 44 11.3 27.4 0.03 0.48 0.05 88 1011.0
20260505091555 5 35 12.9 27.4 0.03 0.48 0.05 88 1010.9
20260505091036 5 44 12.9 22.5 0.05 0.48 0.05 88 1010.9
20260505090536 5 63 12.9 22.5 0.05 0.48 0.05 88 1010.9
20260505090048 5 44 12.9 20.9 0.05 0.48 0.05 89 1011.1
20260505085537 5 51 11.3 24.1 0.05 0.48 0.05 89 1011.1
20260505085036 5 62 12.9 24.1 0.05 0.48 0.05 89 1011.1
20260505084542 5 59 16.1 25.7 0.05 0.48 0.05 88 1011.1
20260505084037 6 60 14.5 27.4 0.05 0.48 0.05 88 1011.1
20260505083533 6 42 14.5 27.4 0.05 0.48 0.05 88 1011.2
20260505083038 6 37 16.1 25.7 0.05 0.48 0.05 88 1011.1
20260505082536 6 30 14.5 25.7 0.05 0.48 0.05 88 1011.2
20260505082036 6 74 11.3 22.5 0.03 0.46 0.03 87 1011.2
20260505081543 6 65 14.5 22.5 0.03 0.46 0.03 86 1011.3
20260505081040 6 43 12.9 29.0 0.00 0.43 0.00 85 1011.2
20260505080538 7 36 14.5 29.0 0.00 0.43 0.00 84 1011.2
20260505080045 8 35 19.3 27.4 0.00 0.43 0.00 84 1011.3
20260505075535 8 42 9.7 17.7 0.00 0.43 0.00 84 1011.3
20260505075036 8 47 4.8 8.0 0.00 0.43 0.00 84 1011.3
20260505074548 8 78 3.2 6.4 0.00 0.43 0.00 84 1011.3
20260505074036 8 130 3.2 4.8 0.00 0.43 0.00 84 1011.2
20260505073533 8 135 1.6 4.8 0.00 0.43 0.00 84 1011.3
20260505073053 8 140 1.6 4.8 0.00 0.43 0.00 84 1011.2
20260505072536 8 0 0.0 6.4 0.00 0.43 0.00 84 1011.2
20260505072036 8 147 1.6 6.4 0.00 0.43 0.00 84 1011.2
20260505071554 8 147 1.6 6.4 0.00 0.43 0.00 85 1011.2
20260505071036 8 146 3.2 9.7 0.00 0.43 0.00 85 1011.0
20260505070538 8 147 3.2 9.7 0.00 0.43 0.00 85 1010.9
20260505070045 8 163 3.2 11.3 0.00 0.43 0.00 85 1010.9
20260505065535 8 159 4.8 12.9 0.00 0.43 0.00 85 1010.9
20260505065040 8 173 8.0 14.5 0.00 0.43 0.00 85 1010.9
20260505064543 8 159 8.0 14.5 0.00 0.43 0.00 85 1010.9
20260505064042 8 176 6.4 12.9 0.00 0.43 0.00 86 1011.0
20260505063536 8 171 4.8 16.1 0.00 0.43 0.00 86 1011.0
20260505063050 8 153 6.4 16.1 0.00 0.43 0.00 86 1011.0
20260505062537 8 155 6.4 11.3 0.00 0.43 0.00 86 1011.1
20260505062035 9 140 4.8 11.3 0.00 0.43 0.00 87 1011.1
20260505061551 9 148 4.8 12.9 0.00 0.43 0.00 87 1011.2
20260505061036 9 140 6.4 14.5 0.00 0.43 0.00 87 1011.1
20260505060540 9 138 8.0 14.5 0.00 0.43 0.00 88 1011.1
20260505060051 9 151 4.8 9.7 0.00 0.43 0.00 89 1011.1
20260505055537 9 150 4.8 9.7 0.00 0.43 0.43 89 1011.1
20260505055038 9 0 1.6 11.3 0.00 0.43 0.43 89 1011.2
20260505054551 9 161 4.8 14.5 0.00 0.43 0.43 89 1011.0
20260505054037 9 139 4.8 14.5 0.00 0.43 0.43 89 1011.0
20260505053537 9 136 6.4 12.9 0.00 0.43 0.43 89 1010.9
20260505053055 9 142 8.0 12.9 0.03 0.43 0.43 89 1011.1
20260505052537 9 148 4.8 9.7 0.05 0.43 0.43 89 1011.1
20260505052037 9 163 6.4 9.7 0.08 0.43 0.43 89 1011.0
20260505051558 9 207 3.2 6.4 0.10 0.43 0.43 89 1011.0
20260505051040 9 207 3.2 6.4 0.10 0.43 0.43 88 1011.0
20260505050533 9 207 0.0 4.8 0.13 0.43 0.43 88 1011.0
20260505041547 10 259 4.8 16.1 0.30 0.33 0.33 84 1011.2
20260505041033 10 246 6.4 16.1 0.30 0.33 0.33 83 1011.1
20260505040537 10 269 9.7 16.1 0.30 0.30 0.30 82 1011.0
20260505040050 10 246 6.4 12.9 0.25 0.25 0.25 82 1010.9
20260505035537 11 246 4.8 11.3 0.23 0.23 0.23 81 1010.9
20260505035036 11 284 3.2 8.0 0.23 0.23 0.23 80 1010.9
20260505034552 11 0 1.6 4.8 0.18 0.18 0.18 79 1011.0
20260505034037 11 302 1.6 6.4 0.18 0.18 0.18 79 1011.0
20260505033537 11 308 3.2 6.4 0.15 0.15 0.15 78 1010.9
20260505033049 11 319 3.2 6.4 0.13 0.13 0.13 77 1010.8
20260505032537 11 327 3.2 4.8 0.08 0.08 0.08 77 1010.7
20260505032040 11 50 0.0 3.2 0.05 0.05 0.05 77 1010.6
20260505031549 11 0 0.0 4.8 0.03 0.03 0.03 76 1010.6
20260505031036 11 78 1.6 4.8 0.03 0.03 0.03 74 1010.6
20260505030538 11 97 0.0 4.8 0.00 0.00 0.00 73 1010.3
20260505030050 11 0 1.6 4.8 0.00 0.00 0.00 72 1010.2
20260505025535 11 97 3.2 4.8 0.00 0.00 0.00 70 1010.1
20260505025038 11 105 0.0 3.2 0.00 0.00 0.00 69 1010.0
20260505024600 11 105 0.0 3.2 0.00 0.00 0.00 69 1010.0
20260505024037 11 0 0.0 6.4 0.00 0.00 0.00 69 1010.1
20260505023540 11 0 0.0 9.7 0.00 0.00 0.00 69 1010.1
20260505023045 11 105 3.2 12.9 0.00 0.00 0.00 69 1010.1
20260505022537 11 122 6.4 12.9 0.00 0.00 0.00 70 1010.1
20260505022037 12 98 6.4 12.9 0.00 0.00 0.00 70 1010.1
20260505021542 12 69 3.2 6.4 0.00 0.00 0.00 69 1010.1
20260505021036 12 9 3.2 12.9 0.00 0.00 0.00 69 1010.2
20260505020536 12 349 4.8 16.1 0.00 0.00 0.00 68 1010.2
20260505020040 12 33 4.8 17.7 0.00 0.00 0.00 68 1010.2
20260505015537 13 312 6.4 17.7 0.00 0.00 0.00 65 1010.1
20260505015040 13 300 4.8 9.7 0.00 0.00 0.00 61 1010.0
20260505014549 13 302 3.2 11.3 0.00 0.00 0.00 61 1009.8
20260505014040 13 302 3.2 16.1 0.00 0.00 0.00 62 1009.7
20260505013536 13 290 8.0 16.1 0.00 0.00 0.00 59 1009.8
20260505013101 14 286 8.0 19.3 0.00 0.00 0.00 56 1009.9
20260505012539 15 288 11.3 20.9 0.00 0.00 0.00 53 1009.8
20260505012036 15 298 12.9 20.9 0.00 0.00 0.00 48 1009.5
20260505011543 15 292 12.9 19.3 0.00 0.00 0.00 46 1009.4
20260505011037 15 326 11.3 17.7 0.00 0.00 0.00 45 1009.2
20260505010537 15 324 11.3 17.7 0.00 0.00 0.00 44 1008.9
20260505010043 15 307 6.4 17.7 0.00 0.00 0.00 43 1008.7
20260505005537 15 332 6.4 19.3 0.00 0.00 0.00 42 1008.6
20260505005037 15 352 12.9 25.7 0.00 0.00 0.00 43 1008.3
20260505004549 15 360 14.5 25.7 0.00 0.00 0.00 44 1008.4
20260505004036 15 5 9.7 19.3 0.00 0.00 0.00 43 1008.5
20260505003536 15 300 6.4 24.1 0.00 0.00 0.00 43 1008.5
20260505003047 15 360 14.5 24.1 0.00 0.00 0.00 44 1008.5
20260505002536 15 13 14.5 24.1 0.00 0.00 0.00 44 1008.5
20260505002037 15 5 11.3 20.9 0.00 0.00 0.00 44 1008.5
20260505001544 15 360 9.7 20.9 0.00 0.00 0.00 43 1008.5
20260505001038 16 19 9.7 22.5 0.00 0.00 0.00 43 1008.6
20260505000537 16 325 11.3 22.5 0.00 0.00 0.00 41 1008.5
20260505000053 16 5 12.9 19.3 0.00 0.00 0.00 37 1008.5
20260504235537 16 300 11.3 17.7 0.00 0.00 0.00 38 1008.6
20260504235036 16 12 4.8 16.1 0.00 0.00 0.00 37 1008.6
20260504234549 16 298 6.4 16.1 0.00 0.00 0.00 38 1008.6
20260504234036 16 0 1.6 30.6 0.00 0.00 0.00 37 1008.7
20260504233533 17 225 12.9 30.6 0.00 0.00 0.00 37 1008.6
20260504233043 17 313 17.7 27.4 0.00 0.00 0.00 36 1008.8
20260504232534 17 38 3.2 16.1 0.00 0.00 0.00 33 1008.6
20260504232035 17 9 8.0 16.1 0.00 0.00 0.00 33 1008.7
20260504231539 17 309 8.0 19.3 0.00 0.00 0.00 32 1008.5
20260504231035 17 5 11.3 20.9 0.00 0.00 0.00 32 1008.2
20260504230534 17 352 11.3 20.9 0.00 0.00 0.00 32 1007.9
20260504230037 17 5 14.5 24.1 0.00 0.00 0.00 32 1007.8
20260504225534 17 5 12.9 24.1 0.00 0.00 0.00 32 1007.6
20260504225036 17 5 12.9 24.1 0.00 0.00 0.00 31 1007.6
20260504224543 17 24 14.5 29.0 0.00 0.00 0.00 31 1007.4
20260504224034 18 36 17.7 30.6 0.00 0.00 0.00 31 1007.3
20260504223533 18 5 17.7 30.6 0.00 0.00 0.00 30 1007.2
20260504223050 18 15 19.3 30.6 0.00 0.00 0.00 29 1007.2
20260504222533 18 26 16.1 30.6 0.00 0.00 0.00 29 1007.2
20260504222033 18 27 22.5 30.6 0.00 0.00 0.00 28 1007.2
20260504221541 18 9 17.7 29.0 0.00 0.00 0.00 29 1007.2
20260504221036 18 35 16.1 32.2 0.00 0.00 0.00 28 1007.2
20260504220533 18 14 17.7 33.8 0.00 0.00 0.00 28 1007.1
20260504220042 18 22 22.5 33.8 0.00 0.00 0.00 28 1007.2
20260504215532 18 21 24.1 33.8 0.00 0.00 0.00 28 1007.3
20260504215034 18 333 12.9 37.0 0.00 0.00 0.00 29 1007.7
20260504214548 18 346 27.4 37.0 0.00 0.00 0.00 29 1008.0
20260504214034 18 5 22.5 30.6 0.00 0.00 0.00 29 1008.1
20260504213535 18 5 17.7 29.0 0.00 0.00 0.00 29 1008.1
20260504213044 18 19 16.1 29.0 0.00 0.00 0.00 29 1008.1
20260504212535 18 348 16.1 27.4 0.00 0.00 0.00 29 1008.1
20260504212035 18 303 14.5 40.2 0.00 0.00 0.00 31 1008.2
20260504211542 18 286 16.1 40.2 0.00 0.00 0.00 34 1008.4
20260504211034 18 111 22.5 38.6 0.00 0.00 0.00 30 1008.3
20260504210537 18 298 17.7 35.4 0.00 0.00 0.00 32 1008.0
20260504210044 20 308 22.5 33.8 0.00 0.00 0.00 30 1007.8
20260504205537 20 295 19.3 27.4 0.00 0.00 0.00 24 1007.5
20260504205034 20 323 11.3 35.4 0.00 0.00 0.00 23 1007.5
20260504204538 20 28 9.7 40.2 0.00 0.00 0.00 23 1007.1
20260504204035 20 14 25.7 40.2 0.00 0.00 0.00 23 1007.0
20260504203535 20 19 22.5 43.5 0.00 0.00 0.00 22 1006.7
20260504203040 21 360 29.0 43.5 0.00 0.00 0.00 22 1006.7
20260504202532 21 5 20.9 30.6 0.00 0.00 0.00 20 1006.5
20260504202034 22 20 11.3 24.1 0.00 0.00 0.00 19 1006.6
20260504201558 23 329 12.9 25.7 0.00 0.00 0.00 18 1006.6
20260504201037 23 281 16.1 25.7 0.00 0.00 0.00 17 1006.6
20260504200533 23 301 11.3 27.4 0.00 0.00 0.00 16 1006.6
20260504200056 24 298 16.1 30.6 0.00 0.00 0.00 16 1006.7
20260504195533 24 321 14.5 30.6 0.00 0.00 0.00 14 1006.7
20260504195033 25 290 14.5 30.6 0.00 0.00 0.00 15 1006.6
20260504194553 25 344 16.1 30.6 0.00 0.00 0.00 14 1006.6
20260504194033 25 344 12.9 25.7 0.00 0.00 0.00 15 1006.6
20260504193534 25 303 14.5 27.4 0.00 0.00 0.00 14 1006.6
20260504193050 25 285 16.1 29.0 0.00 0.00 0.00 14 1006.6
20260504192533 25 294 14.5 29.0 0.00 0.00 0.00 14 1006.6
20260504192033 25 339 14.5 27.4 0.00 0.00 0.00 14 1006.5
20260504191557 25 299 12.9 27.4 0.00 0.00 0.00 15 1006.6
20260504191035 25 293 14.5 27.4 0.00 0.00 0.00 15 1006.6
20260504190536 25 269 16.1 32.2 0.00 0.00 0.00 15 1006.6
20260504190058 25 298 19.3 35.4 0.00 0.00 0.00 14 1006.6
20260504185536 25 314 14.5 35.4 0.00 0.00 0.00 15 1006.5
20260504185033 25 314 17.7 37.0 0.00 0.00 0.00 14 1006.5
20260504184608 25 331 16.1 37.0 0.00 0.00 0.00 14 1006.5
20260504184037 25 288 17.7 33.8 0.00 0.00 0.00 14 1006.7
20260504183534 24 296 16.1 33.8 0.00 0.00 0.00 15 1006.8
20260504183050 24 272 22.5 33.8 0.00 0.00 0.00 15 1006.8
20260504182533 24 297 17.7 32.2 0.00 0.00 0.00 15 1006.9
20260504182033 23 289 19.3 37.0 0.00 0.00 0.00 15 1007.0
20260504181551 23 296 20.9 37.0 0.00 0.00 0.00 17 1007.0
20260504181036 23 309 16.1 27.4 0.00 0.00 0.00 17 1007.0
20260504180534 23 301 16.1 27.4 0.00 0.00 0.00 17 1007.3
20260504180053 23 309 14.5 25.7 0.00 0.00 0.00 18 1007.4
20260504175534 23 335 17.7 27.4 0.00 0.00 0.00 19 1007.6
20260504175034 23 300 14.5 29.0 0.00 0.00 0.00 19 1007.7
20260504174545 23 305 17.7 29.0 0.00 0.00 0.00 19 1007.7
20260504174034 23 256 12.9 29.0 0.00 0.00 0.00 19 1007.8
20260504173536 23 286 14.5 30.6 0.00 0.00 0.00 19 1007.9
20260504173041 23 325 19.3 30.6 0.00 0.00 0.00 19 1007.9
20260504172533 23 291 17.7 35.4 0.00 0.00 0.00 20 1007.9
20260504172034 23 296 20.9 35.4 0.00 0.00 0.00 20 1008.0
20260504171557 23 323 19.3 33.8 0.00 0.00 0.00 20 1008.0
20260504171036 22 289 19.3 33.8 0.00 0.00 0.00 20 1008.2
20260504170534 22 294 14.5 30.6 0.00 0.00 0.00 21 1008.1
20260504151037 14 232 3.2 12.9 0.00 0.00 0.00 34 1008.5
20260504150536 14 235 4.8 12.9 0.00 0.00 0.00 34 1008.5
20260504141036 12 214 3.2 11.3 0.00 0.00 0.00 40 1008.8
20260504140538 11 254 3.2 11.3 0.00 0.00 0.00 42 1008.8
20260504140106 11 224 4.8 11.3 0.00 0.00 0.00 42 1008.7
20260504130533 7 246 3.2 8.0 0.00 0.00 0.00 54 1008.7